Wind_Speed
3 3 5 6 3 7 5 1 4 4 1 3 7 6 7 11 13 14 15 15 15 15 12 16 17 16 16 16 18 19 17 12 7 2 4 6 12 5 1 2 2 2 2 7
2 4 3 2 4 5 2 2 3 3 5 2 2 3 3 8 9 11 12 13 14 12 12 13 16 16 16 14 15 15 13 8 8 5 5 2 10 5 3 2 3 7 3 5
3 3 4 4 4 5 3 3 2 2 3 3 2 1 2 1 8 4 11 15 15 16 14 12 14 16 14 14 14 13 12 9 10 6 9 10 11 11 6 6 8 6 3 3
3 1 3 2 4 7 4 6 3 1 1 2 5 2 4 3 7 6 7 14 17 16 14 12 15 15 14 11 11 13 13 12 11 10 9 12 11 7 5 7 7 4 1 2
3 5 4 2 3 9 3 3 4 3 3 2 3 3 1 1 4 7 6 7 14 11 13 15 16 13 13 11 14 15 13 13 12 10 11 11 8 8 10 7 5 2 1 3
2 1 4 2 3 3 11 5 5 3 1 3 1 2 2 3 4 8 7 5 7 8 12 11 13 14 11 10 11 13 13 15 13 15 14 9 10 13 11 8 4 2 2 3
2 4 3 3 3 5 3 4 1 2 4 2 2 3 4 3 6 8 11 9 5 8 11 11 12 16 15 13 12 11 13 15 13 15 12 10 13 12 10 8 5 4 4 5
7 6 6 5 6 4 4 4 3 3 3 3 2 3 1 2 5 6 7 9 4 6 9 10 10 12 12 12 14 12 13 15 14 11 10 8 10 8 10 9 7 7 6 7
5 5 2 3 2 2 5 4 4 6 1 3 1 3 8 3 2 3 4 1 3 5 6 8 9 10 11 9 10 8 11 14 13 9 9 12 11 7 10 10 9 8 7 8
4 2 1 2 4 8 2 9 4 1 5 4 2 3 3 3 5 1 2 0 1 2 3 6 10 11 9 9 8 7 7 7 8 10 11 14 11 10 10 12 12 11 10 10
7 3 3 2 3 7 4 4 5 4 2 4 3 3 5 6 3 1 3 3 4 6 4 7 11 13 11 9 8 7 7 6 8 14 15 14 13 11 9 11 13 12 10 9
7 3 6 8 1 2 1 5 6 5 5 0 2 4 1 4 2 2 1 4 7 7 3 6 9 11 12 10 9 8 10 9 8 13 15 13 11 10 11 12 14 12 11 10
9 3 4 2 3 3 4 4 3 7 2 6 5 2 3 3 5 4 3 5 4 5 6 7 11 12 14 13 12 11 10 10 15 13 12 11 11 9 11 12 12 12 11 11
8 4 5 8 3 3 4 5 7 3 4 7 5 3 4 4 7 6 4 3 3 4 3 8 10 13 12 13 12 12 12 12 12 11 12 11 9 7 8 10 12 12 10 10
6 8 6 4 3 3 5 9 9 6 7 6 6 6 3 5 2 5 4 2 4 4 4 5 9 10 12 13 11 10 11 17 19 12 12 11 9 8 8 7 9 11 9 9
1 4 6 4 5 8 6 8 7 2 6 3 3 4 5 4 7 7 3 1 3 2 3 5 10 14 14 16 17 16 14 18 19 16 14 14 14 11 9 8 8 10 10 8
2 5 4 5 3 8 5 9 9 4 5 4 6 3 3 5 6 5 3 2 4 5 3 2 8 13 15 14 13 10 11 14 12 7 11 15 15 15 11 9 9 7 11 9
5 4 2 4 6 7 3 2 3 4 5 8 2 2 5 11 8 4 2 0 4 6 6 0 4 11 10 7 10 10 13 15 13 9 13 15 19 18 14 10 10 10 11 10
1 4 4 4 5 2 1 3 4 4 4 5 4 4 9 9 12 10 6 5 5 4 5 6 9 8 9 10 10 10 12 13 13 11 15 17 18 17 15 13 13 11 9 9
4 6 2 3 4 4 2 4 3 3 2 5 6 7 11 7 4 4 4 6 7 7 5 6 6 5 9 10 11 11 11 11 10 11 17 19 18 17 16 18 12 6 8 9
3 3 2 3 2 1 1 4 4 5 3 9 1 4 8 4 5 7 5 6 8 8 8 8 11 9 6 9 13 12 9 10 9 10 14 13 12 18 18 17 11 11 14 11
2 2 2 2 1 4 9 3 3 3 3 5 4 9 12 11 9 8 6 4 6 7 8 10 11 9 7 5 10 10 11 10 11 12 9 9 8 9 15 18 16 16 20 17
2 2 2 2 1 0 1 3 7 5 6 3 5 11 12 13 9 9 7 5 4 4 4 6 7 7 8 7 8 12 13 11 9 9 7 5 5 8 12 17 21 25 26 23
2 2 1 3 2 1 5 4 6 5 3 2 6 9 11 10 12 10 8 8 8 7 6 4 3 4 6 8 9 9 9 10 8 7 6 4 5 5 9 18 23 26 26 24
2 1 1 3 2 2 3 3 5 2 5 7 9 8 10 13 11 11 9 8 8 9 8 7 6 6 6 7 8 7 7 8 9 9 7 6 6 7 12 16 17 22 23 23
2 1 1 2 2 1 2 1 2 3 5 6 10 10 9 11 12 11 8 9 8 7 6 5 6 6 5 8 7 4 3 7 9 9 8 9 11 12 13 16 16 14 15 14
Wind_Direction
29 225 207 188 138 122 124 136 272 271 273 240 203 222 226 197 212 211 200 198 207 212 216 213 208 203 205 197 199 200 196 212 228 196 215 235 209 206 320 360 9 64 228 242
170 222 189 147 173 149 133 163 244 280 344 210 193 178 326 203 232 237 213 211 218 198 199 202 198 196 202 201 201 196 191 210 206 217 209 177 168 203 140 177 198 227 201 252
186 125 130 220 175 157 171 207 198 294 344 81 341 122 325 189 247 261 225 219 214 208 198 196 199 198 193 195 194 188 184 197 171 177 161 163 174 154 156 143 142 153 189 222
225 205 233 200 199 183 197 209 188 263 308 20 351 293 246 314 315 325 284 213 214 208 200 196 198 196 192 187 182 180 180 174 172 169 169 159 156 145 153 138 132 129 152 284
150 169 179 273 216 189 105 111 133 95 90 211 31 272 266 243 240 342 354 214 222 208 192 200 198 185 183 173 174 174 176 174 177 167 165 160 150 140 139 134 130 157 289 342
250 277 261 248 61 167 142 109 74 77 120 236 43 289 200 305 337 316 329 263 225 196 192 196 183 161 167 175 174 170 173 169 175 172 161 161 158 150 149 146 148 130 106 58
222 225 258 210 129 104 142 156 224 233 208 238 140 242 264 282 327 289 294 291 218 180 178 181 176 166 166 182 184 181 177 167 169 172 174 167 160 152 145 136 122 102 67 50
199 204 195 167 221 166 162 216 212 236 215 168 154 228 180 78 303 312 280 257 237 183 184 181 181 164 170 182 176 180 181 173 174 171 174 166 152 146 126 110 98 75 54 40
162 226 272 228 132 187 157 179 86 109 99 252 312 258 277 138 238 10 28 84 191 208 185 161 154 159 169 173 183 181 186 181 180 173 167 150 138 135 117 106 95 85 64 43
179 197 190 90 123 56 239 136 154 140 178 221 197 274 259 274 234 63 82 24 2 279 95 130 145 155 176 177 181 174 177 181 173 167 156 137 135 127 121 112 98 80 59 49
155 242 152 209 196 181 144 172 68 105 324 195 219 233 221 261 265 128 33 360 6 30 84 161 160 167 176 172 160 157 141 147 169 150 132 141 140 129 120 102 95 86 74 65
188 181 234 254 85 333 189 190 172 195 187 102 296 225 47 221 221 127 79 32 45 47 127 149 163 161 176 165 156 143 137 142 144 146 150 147 141 140 129 115 100 88 81 72
170 196 201 185 156 156 211 162 132 103 114 180 197 227 118 204 228 194 127 84 59 50 98 150 162 175 180 168 160 151 158 149 130 134 153 154 140 141 130 113 107 99 93 85
157 147 188 211 165 150 167 176 174 135 178 159 227 271 281 224 223 186 129 107 80 53 115 159 166 178 182 170 170 165 161 162 163 159 155 154 147 135 131 127 115 105 100 94
190 193 186 193 199 215 193 175 178 192 164 196 164 208 288 24 26 125 166 116 91 69 101 164 164 169 184 167 168 175 163 161 151 150 165 154 154 144 131 116 115 112 106 99
61 163 165 163 179 201 206 194 190 206 168 135 158 240 41 78 112 121 141 17 39 10 72 159 174 178 192 178 179 188 183 186 168 157 165 162 156 147 145 139 133 125 114 103
135 142 160 183 166 158 202 196 184 170 198 170 199 82 51 113 115 117 112 81 34 353 358 172 194 196 195 197 183 184 186 175 184 163 164 170 170 158 162 157 152 149 123 115
135 109 64 129 156 196 77 342 224 220 220 215 293 355 97 119 105 84 73 55 41 15 358 350 202 213 194 200 172 170 172 176 183 179 172 181 182 167 156 168 173 162 128 130
25 134 108 166 185 358 167 154 162 196 198 203 212 149 129 141 132 95 82 57 28 11 331 303 270 222 194 178 181 170 177 173 180 175 182 201 191 176 167 184 189 166 138 142
51 60 123 155 157 171 41 9 353 281 187 189 204 158 149 169 166 100 72 66 52 21 7 12 48 146 166 172 179 176 184 188 192 183 201 199 192 188 177 183 193 210 182 159
33 6 81 132 92 142 205 316 297 198 70 354 277 152 143 114 86 111 97 69 66 42 22 45 74 80 108 164 178 188 186 173 148 166 181 177 181 190 194 197 209 228 181 164
82 143 159 118 154 199 5 275 235 7 318 338 116 131 115 120 121 122 114 92 68 50 36 47 65 64 78 143 174 157 157 158 149 144 146 168 194 213 220 219 207 208 190 177
160 360 32 211 357 285 80 332 324 299 298 0 152 159 146 143 148 149 148 145 125 105 56 50 65 72 69 91 156 149 150 164 164 152 149 167 196 233 226 223 194 192 185 178
77 62 283 260 120 303 28 348 333 315 310 12 115 158 164 149 152 153 162 166 165 163 147 124 97 86 82 85 115 143 163 170 165 164 166 188 189 212 220 200 196 187 180 177
18 292 21 281 251 270 112 19 337 23 91 100 103 134 142 146 161 170 177 183 176 172 167 165 160 141 110 95 92 110 134 152 153 148 146 136 137 161 164 170 175 183 185 187
188 154 255 316 299 306 115 312 356 123 108 110 124 129 150 162 164 174 175 174 171 180 181 161 139 133 139 121 113 107 137 152 146 134 131 140 140 144 146 148 141 155 161 168
Height
778 782 788 780 780 783 791 798 803 790 777 781 780 777 770 771 773 774 777 781 782 784 788 790 794 796 798 803 806 812 817 815 815 816 817 817 819 822 821 820 820 821 822 823
784 790 781 780 783 785 790 797 795 785 779 776 781 778 774 772 770 770 775 778 780 783 785 786 791 794 796 799 804 810 813 813 814 814 814 816 816 819 818 818 817 819 822 824
787 782 778 782 784 787 790 791 792 792 785 783 786 785 779 771 772 771 768 768 772 775 780 784 788 791 794 797 801 806 809 811 812 813 814 815 815 815 816 817 818 820 821 821
783 775 779 781 783 779 791 778 782 787 787 802 793 808 789 778 775 771 766 765 764 769 776 781 783 788 793 797 800 804 806 808 810 811 813 814 813 816 818 818 820 821 821 821
783 780 781 783 776 773 782 776 783 791 794 798 801 802 782 784 778 772 765 763 760 766 774 775 779 786 790 795 797 801 804 805 809 809 811 813 814 815 817 820 821 821 821 820
776 767 771 770 770 770 777 785 794 800 798 812 814 810 791 782 782 772 764 762 761 764 769 772 778 786 791 792 796 800 803 804 808 810 811 813 813 815 817 817 820 821 821 820
782 777 765 762 774 775 777 785 813 820 817 819 815 813 787 774 775 774 769 761 758 764 768 772 777 785 790 792 796 800 803 804 807 810 811 813 814 815 817 818 819 820 821 820
794 800 772 761 766 775 782 783 806 838 831 816 815 808 781 774 771 768 763 761 759 764 768 773 777 784 789 791 795 800 805 805 807 810 813 817 818 818 817 817 818 819 820 820
792 790 764 763 761 765 790 792 789 817 834 818 808 793 769 771 768 767 765 764 763 764 770 778 784 786 789 793 797 801 803 806 809 812 816 819 820 820 816 816 818 820 822 820
776 791 770 766 762 771 773 780 799 802 830 832 813 811 793 773 766 770 769 768 768 769 777 782 786 790 792 794 799 801 805 808 810 813 816 816 820 819 818 816 817 819 820 820
770 780 780 772 774 776 787 786 797 792 809 812 820 801 769 769 765 772 773 771 772 777 778 780 784 786 790 794 797 800 803 805 806 808 811 814 817 817 818 817 816 818 820 822
764 774 788 779 768 768 769 775 778 791 821 819 807 793 770 768 770 774 774 774 776 779 778 782 785 787 790 793 797 800 802 805 808 809 812 815 818 820 819 818 817 819 822 824
764 781 793 785 777 774 773 779 785 790 795 810 804 792 770 771 772 774 775 778 778 778 779 781 784 787 789 793 795 799 802 806 810 806 815 820 822 822 822 820 819 821 824 826
754 776 776 786 778 771 782 781 781 773 790 800 789 780 764 768 772 774 779 779 776 777 776 778 782 786 788 793 795 796 798 803 808 812 815 819 822 823 823 822 820 822 825 827
756 769 774 770 770 770 766 772 778 779 774 776 775 781 763 772 775 777 777 778 777 776 775 778 781 785 787 790 794 797 799 801 802 809 815 817 821 823 824 826 825 824 826 827
764 774 768 776 769 768 772 769 772 776 779 776 775 776 775 779 777 776 778 778 777 775 776 777 779 781 784 784 787 792 796 799 799 801 808 812 815 820 823 824 826 825 824 827
765 773 774 782 775 772 785 769 769 772 770 766 777 769 776 780 779 779 780 779 777 775 777 777 779 780 781 784 787 794 798 801 805 806 809 811 813 814 821 824 825 828 823 826
768 775 779 784 780 800 772 765 764 767 765 766 771 773 776 777 781 781 782 782 780 780 779 777 778 780 782 788 790 792 796 799 803 808 810 812 813 812 816 822 825 826 822 825
761 767 785 782 782 782 770 769 769 768 765 764 769 771 774 775 777 786 785 785 785 784 783 781 780 779 782 787 791 793 797 798 802 806 806 810 813 813 812 819 822 821 820 826
760 763 761 781 784 793 777 765 761 764 777 761 765 765 768 770 774 780 785 786 785 785 783 781 779 779 782 786 790 793 795 798 801 803 804 805 809 811 812 815 818 820 822 826
776 776 775 778 781 776 770 767 763 784 784 768 768 768 770 772 772 781 784 785 784 784 784 781 780 782 784 786 788 791 795 797 799 803 805 807 808 809 812 815 817 819 823 826
776 781 788 788 786 791 777 766 773 776 770 769 769 770 773 776 780 782 784 785 784 785 784 783 784 786 788 788 791 792 794 798 799 800 805 807 808 811 812 812 813 816 817 823
783 783 777 781 782 784 779 778 778 775 772 767 768 770 771 775 781 782 784 785 785 786 787 787 788 790 790 789 790 792 794 798 801 801 802 804 805 806 808 809 811 814 814 818
781 784 782 782 783 779 774 778 777 774 771 769 767 770 772 774 779 781 783 784 785 788 789 789 791 791 792 791 790 791 795 797 798 800 800 801 802 802 803 804 807 810 813 818
782 784 785 782 779 779 778 779 779 775 772 772 770 772 773 777 781 782 782 785 786 788 790 791 792 792 791 792 792 794 795 796 797 798 799 798 799 802 803 804 807 809 812 816
781 782 781 781 780 780 781 781 780 777 775 773 772 775 776 776 777 780 783 788 791 794 796 795 792 793 792 790 793 796 797 797 797 798 799 799 800 803 806 806 808 812 814 819